DW7680 Weather Reports


Display with metric or nautical units.
time (UTC)temp
F
wind
direction
speed
MPH
gust
MPH
rain 1hr
in
rain 24hr
in
rain mn
in
humidity
%
barometer
mb
20260902161558 76 260 7.0 18.0 0.00 0.26 0.00 44 1015.8
20260902160105 75 200 7.0 16.0 0.00 0.26 0.00 46 1015.7
20260902154559 74 246 4.0 12.0 0.00 0.26 0.00 49 1015.6
20260902153058 73 251 3.0 8.0 0.00 0.26 0.00 53 1015.6
20260902151558 72 304 0.0 8.0 0.00 0.26 0.00 56 1015.7
20260902150058 69 301 2.0 6.0 0.00 0.26 0.00 59 1015.7
20260902144602 66 283 0.0 2.0 0.00 0.26 0.00 67 1015.8
20260902143100 63 311 2.0 4.0 0.00 0.26 0.00 71 1015.8
20260902141605 60 303 1.0 3.0 0.00 0.26 0.00 74 1016.0
20260902134558 56 277 4.0 8.0 0.00 0.26 0.00 78 1015.8
20260902133058 55 268 4.0 7.0 0.00 0.26 0.00 81 1015.7
20260902131606 54 285 3.0 8.0 0.00 0.26 0.00 82 1015.5
20260902130058 53 273 6.0 9.0 0.00 0.26 0.00 82 1015.4
20260902124602 53 281 4.0 7.0 0.00 0.26 0.00 82 1015.4
20260902123059 53 263 5.0 8.0 0.00 0.26 0.00 82 1015.3
20260902121604 53 268 5.0 8.0 0.00 0.26 0.00 83 1015.1
20260902120059 54 279 3.0 8.0 0.00 0.26 0.00 82 1014.9
20260902114559 54 288 5.0 7.0 0.00 0.26 0.00 82 1014.8
20260902113112 54 269 4.0 11.0 0.00 0.26 0.00 82 1014.8
20260902111603 53 251 4.0 7.0 0.00 0.26 0.00 82 1014.6
20260902110059 54 261 4.0 11.0 0.00 0.26 0.00 82 1014.5
20260902104559 54 269 5.0 8.0 0.00 0.26 0.00 82 1014.6
20260902103058 54 258 3.0 6.0 0.00 0.26 0.00 82 1014.6
20260902101617 54 266 3.0 6.0 0.00 0.26 0.00 82 1014.6
20260902100100 54 271 4.0 10.0 0.00 0.26 0.00 81 1014.6
20260902094557 55 266 4.0 9.0 0.00 0.26 0.00 81 1014.6
20260902093058 55 305 4.0 9.0 0.00 0.26 0.00 80 1014.5
20260902091558 55 292 5.0 10.0 0.00 0.26 0.00 80 1014.7
20260902090107 55 279 4.0 9.0 0.00 0.26 0.00 80 1014.6
20260902084601 56 266 5.0 10.0 0.00 0.26 0.00 79 1014.8
20260902083100 55 265 5.0 10.0 0.00 0.26 0.00 80 1014.9
20260902081604 55 263 5.0 9.0 0.00 0.26 0.00 81 1015.0
20260902080107 55 275 5.0 10.0 0.00 0.26 0.00 81 1015.0
20260902074559 55 267 6.0 10.0 0.00 0.26 0.00 81 1015.0
20260902073059 55 278 4.0 9.0 0.00 0.26 0.00 81 1015.1
20260902071601 55 254 2.0 7.0 0.00 0.26 0.00 81 1015.0
20260902070103 55 254 4.0 6.0 0.00 0.26 0.00 82 1014.8
20260902064606 56 254 3.0 8.0 0.00 0.26 0.00 81 1014.8
20260902063100 56 301 4.0 7.0 0.00 0.26 0.00 80 1014.9
20260902061623 56 261 4.0 9.0 0.00 0.26 0.00 80 1014.9
20260902060103 56 306 5.0 8.0 0.00 0.26 0.00 80 1014.8
20260902060014 56 292 5.0 8.0 0.00 0.26 0.00 80 1014.9
20260902054500 56 264 4.0 7.0 0.00 0.26 0.26 79 1014.9
20260902053002 57 251 4.0 10.0 0.00 0.26 0.26 79 1014.9
20260902051501 57 278 2.0 8.0 0.00 0.26 0.26 79 1015.1
20260902050106 57 263 4.0 8.0 0.00 0.26 0.26 78 1014.9
20260902050003 57 275 4.0 8.0 0.00 0.26 0.26 78 1014.9
20260902044501 57 250 5.0 9.0 0.00 0.26 0.26 78 1014.9
20260902043001 57 267 5.0 10.0 0.00 0.26 0.26 78 1014.7
20260902041608 58 269 5.0 11.0 0.00 0.26 0.26 78 1014.5
20260902040001 58 267 5.0 10.0 0.00 0.26 0.26 77 1014.3
20260902034559 59 267 4.0 8.0 0.00 0.26 0.26 77 1014.1
20260902033110 59 256 3.0 9.0 0.00 0.26 0.26 77 1013.9
20260902031559 59 261 4.0 9.0 0.00 0.26 0.26 78 1013.5
20260902030105 61 261 2.0 4.0 0.00 0.26 0.26 75 1013.3
20260902024559 63 275 2.0 4.0 0.00 0.26 0.26 72 1013.0
20260902023113 67 281 2.0 4.0 0.00 0.26 0.26 67 1012.8
20260902021616 67 127 1.0 4.0 0.00 0.26 0.26 64 1012.7
20260902014559 68 360 2.0 5.0 0.00 0.26 0.26 62 1012.3
20260902013059 69 360 3.0 10.0 0.00 0.26 0.26 62 1012.1
20260902011559 71 360 8.0 17.0 0.00 0.26 0.26 57 1011.8
20260902010001 75 132 1.0 4.0 0.00 0.26 0.26 52 1011.6
20260902004559 76 284 0.0 2.0 0.00 0.26 0.26 50 1011.3
20260902003100 76 283 0.0 2.0 0.00 0.26 0.26 48 1011.0
20260902001559 76 283 1.0 2.0 0.00 0.26 0.26 46 1011.0
20260901234614 77 284 2.0 5.0 0.00 0.26 0.26 48 1011.0
20260901233102 78 234 1.0 5.0 0.00 0.26 0.26 48 1010.9
20260901231558 77 253 0.0 3.0 0.00 0.26 0.26 50 1010.9
20260901230137 76 253 2.0 7.0 0.00 0.26 0.26 51 1010.9
20260901224559 75 234 2.0 5.0 0.00 0.26 0.26 57 1011.1
20260901223113 72 205 2.0 8.0 0.00 0.26 0.26 62 1011.2
20260901221559 71 243 3.0 7.0 0.00 0.26 0.26 64 1011.2
20260901220001 69 253 2.0 5.0 0.00 0.26 0.26 68 1011.2
20260901214600 67 285 0.0 4.0 0.00 0.26 0.26 75 1011.5
20260901213100 66 284 0.0 4.0 0.00 0.26 0.26 74 1011.6
20260901211600 64 284 1.0 4.0 0.00 0.26 0.26 87 1011.9
20260901204559 61 285 1.0 3.0 0.04 0.26 0.26 90 1012.7
20260901203102 61 141 1.0 4.0 0.05 0.26 0.26 89 1013.0
20260901201604 60 292 1.0 5.0 0.05 0.26 0.26 89 1013.0
20260901200106 59 244 3.0 8.0 0.04 0.25 0.25 88 1013.0
20260901200003 59 232 3.0 8.0 0.04 0.25 0.25 88 1013.0
20260901194606 59 285 7.0 9.0 0.01 0.22 0.22 86 1012.8
20260901193059 59 272 1.0 8.0 0.00 0.21 0.21 85 1012.7
20260901191600 58 273 4.0 10.0 0.07 0.21 0.21 86 1012.8
20260901190108 58 281 6.0 10.0 0.18 0.21 0.21 87 1012.8
20260901190001 58 265 6.0 10.0 0.19 0.21 0.21 87 1012.8
20260901184558 59 256 4.0 11.0 0.21 0.21 0.21 87 1012.8
20260901183102 58 265 4.0 13.0 0.21 0.21 0.21 86 1012.7
20260901181600 58 290 8.0 15.0 0.12 0.12 0.12 82 1012.7
20260901180100 63 275 8.0 16.0 0.02 0.02 0.02 72 1012.4
20260901174601 70 255 6.0 15.0 0.00 0.00 0.00 57 1011.9
20260901173110 75 214 3.0 8.0 0.00 0.00 0.00 45 1012.0
20260901171617 75 65 4.0 13.0 0.00 0.00 0.00 45 1011.6
20260901164633 75 124 6.0 14.0 0.00 0.00 0.00 46 1011.7
20260901163100 73 101 7.0 11.0 0.00 0.00 0.00 48 1011.6